Weather History for Bennington, VT

Change the Weather History Date:

Saturday, March 22, 2014

  Actual Average Record
Temperature  
Mean Temperature 35 °F 35 °F  
Max Temperature 49 °F 46 °F 77 °F (2012)
Min Temperature 20 °F 25 °F 9 °F (2002)
Degree Days  
Heating Degree Days 30 30  
Month to date heating degree days 904 736  
Since 1 July heating degree days 6152 5987  
Cooling Degree Days 0 0  
Month to date cooling degree days 0 0  
Year to date cooling degree days 0 0  
Moisture  
Dew Point 22 °F    
Average Humidity 59    
Maximum Humidity 77    
Minimum Humidity 40    
Precipitation  
Precipitation T in 0.12 in 0.71 in (1999)
Month to date precipitation 1.27 2.19  
Year to date precipitation 7.13 7.18  
Sea Level Pressure  
Sea Level Pressure 29.88 in    
Wind  
Wind Speed 8 mph (SW)    
Max Wind Speed 29 mph    
Max Gust Speed 41 mph    
Visibility 10 miles    
Events      
T = Trace of Precipitation, MM = Missing Value Source: NWS Daily Summary

Daily Weather History Graph

Daily Weather History Graph

Search for Another Location

Airport:

Trip Planner

Search our weather history database for the weather conditions in past years. The results will help you decide how hot, cold, wet, or windy it might be!

Date:

Astronomy

Mar. 22, 2014 Rise Set
Actual Time 6:52 AM EDT 7:07 PM EDT
Civil Twilight 6:24 AM EDT 7:35 PM EDT
Nautical Twilight 5:51 AM EDT 8:09 PM EDT
Astronomical Twilight 5:17 AM EDT 8:43 PM EDT
Moon 12:30 AM EDT (3/22) 10:26 AM EDT (3/22)
Length of Visible Light 13h 11m
Length of Day
12h 14m
Waning Gibbous, 65% of the Moon is Illuminated
Mar 22
Waning Gibbous
Mar 23
Last Quarter
Mar 30
New
Apr 7
First Quarter
Apr 15
Full

Hourly Weather History & Observations

Time (EDT) Temp. Windchill Dew Point Humidity Pressure Visibility Wind Dir Wind Speed Gust Speed Precip Events Conditions
12:54 AM 21.9 °F - 16.0 °F 78% 30.06 in 10.0 mi Calm Calm - N/A   Clear
1:54 AM 21.0 °F 16.2 °F 16.0 °F 81% 30.04 in 10.0 mi East 3.5 mph - N/A   Clear
2:54 AM 25.0 °F 17.1 °F 17.1 °F 72% 30.00 in 10.0 mi ESE 6.9 mph - N/A   Clear
3:54 AM 25.0 °F 19.3 °F 16.0 °F 69% 29.95 in 10.0 mi Variable 4.6 mph - N/A   Clear
4:54 AM 26.1 °F 19.4 °F 17.1 °F 69% 29.94 in 10.0 mi SSE 5.8 mph - N/A   Scattered Clouds
5:54 AM 26.1 °F 21.9 °F 18.0 °F 71% 29.90 in 10.0 mi Variable 3.5 mph - N/A   Overcast
6:54 AM 30.9 °F 22.8 °F 16.0 °F 54% 29.87 in 10.0 mi East 9.2 mph - N/A   Overcast
7:54 AM 33.1 °F 28.7 °F 16.0 °F 50% 29.83 in 10.0 mi Variable 4.6 mph - N/A   Overcast
8:54 AM 36.0 °F - 17.1 °F 46% 29.74 in 10.0 mi North - - N/A   Overcast
9:54 AM 39.0 °F 29.9 °F 18.0 °F 43% 29.70 in 10.0 mi SSE 17.3 mph 33.4 mph N/A   Overcast
10:54 AM 39.9 °F 32.1 °F 21.0 °F 47% 29.71 in 10.0 mi South 13.8 mph 26.5 mph N/A   Overcast
11:54 AM 39.0 °F 32.3 °F 30.0 °F 70% 29.71 in 10.0 mi South 10.4 mph - 0.00 in   Overcast
12:54 PM 45.0 °F 40.1 °F 30.9 °F 58% 29.69 in 10.0 mi SW 9.2 mph 21.9 mph N/A   Overcast
1:54 PM 46.9 °F - 28.9 °F 50% 29.68 in 10.0 mi WSW 11.5 mph 26.5 mph N/A   Overcast
2:54 PM 44.1 °F 36.5 °F 30.0 °F 58% 29.74 in 10.0 mi WNW 17.3 mph 35.7 mph N/A   Overcast
3:54 PM 39.9 °F 31.8 °F 26.1 °F 58% 29.81 in 10.0 mi WNW 15.0 mph 28.8 mph N/A   Overcast
4:54 PM 39.0 °F 34.0 °F 25.0 °F 57% 29.85 in 10.0 mi Variable 6.9 mph 18.4 mph N/A   Mostly Cloudy
5:54 PM 37.0 °F 28.9 °F 24.1 °F 59% 29.89 in 10.0 mi West 12.7 mph 21.9 mph N/A   Mostly Cloudy
6:54 PM 36.0 °F 30.3 °F 23.0 °F 59% 29.93 in 10.0 mi Variable 6.9 mph 17.3 mph N/A   Partly Cloudy
7:54 PM 35.1 °F 28.6 °F 23.0 °F 61% 29.96 in 10.0 mi West 8.1 mph - N/A   Overcast
8:34 PM 35.1 °F - 23.0 °F 61% 29.95 in 10.0 mi North - - N/A   Overcast
8:54 PM 35.1 °F - 23.0 °F 61% 29.98 in 10.0 mi North - - N/A   Overcast
9:22 PM 35.1 °F 27.9 °F 23.0 °F 61% 29.96 in 10.0 mi WNW 9.2 mph - N/A   Overcast
9:54 PM 35.1 °F 31.0 °F 21.9 °F 59% 29.98 in 10.0 mi WSW 4.6 mph - N/A   Overcast
10:54 PM 34.0 °F 29.8 °F 21.0 °F 59% 29.99 in 10.0 mi Variable 4.6 mph - N/A   Overcast
11:54 PM 34.0 °F 29.8 °F 23.0 °F 64% 29.99 in 10.0 mi Variable 4.6 mph - N/A   Overcast